Regional Weather Roundup
Issued by NWS

Home | Current Version | Previous Version | Graphics & Text | Print | Product List | Glossary On
Versions: 1 2 3 4 5 6 7 8 9 10 11 12 13 14 15 16 17 18 19 20 21 22 23 24 25 26 27 28 29 30 31 32 33 34 35 36 37 38 39 40 41 42 43 44 45 46 47 48 49 50
545
ASUS43 KLSX 201907
RWRMO

WEATHER SUMMARY FOR MISSOURI
NATIONAL WEATHER SERVICE SPRINGFIELD MO
200 PM CDT WED SEP 20 2017

NOTE: "FAIR" INDICATES FEW OR NO CLOUDS BELOW 12,000 FEET WITH NO
       SIGNIFICANT WEATHER AND/OR OBSTRUCTIONS TO VISIBILITY.
       CURRENT SKY AND/OR WEATHER CONDITIONS ARE NOT AVAILABLE FOR
       CHILLICOTHE AND FARMINGTON.

MOZ001>031-035>038-043-044-053-054-202000-
...NORTHERN AND WESTERN MISSOURI...

CITY           SKY/WX    TMP DP  RH WIND       PRES   REMARKS
KANSAS CTY INT PTSUNNY   84  73  69 S14       29.81S HX  90
KANSAS C DTWN  PTSUNNY   86  74  67 S14       29.79S HX  94
LEE`S SUMMIT   PTSUNNY   87  74  64 S15       29.82F HX  95
ST JOSEPH      PTSUNNY   88  71  57 S12       29.79S HX  94
CHILLICOTHE      N/A     86  73  65 S10G17    29.81S HX  93
KIRKSVILLE     SUNNY     89  72  56 SW14      29.82F HX  96

$$
MOZ066>068-077>081-088>096-101>105-202000-
...SOUTHWEST MISSOURI...

CITY           SKY/WX    TMP DP  RH WIND       PRES   REMARKS
SPRINGFIELD    SUNNY     92  70  48 SW15G24   29.89F HX  97
JOPLIN         SUNNY     90  75  61 S20G28    29.84F HX 100
BRANSON        PTSUNNY   91  66  43 SW9G16    29.93F HX  94

$$
MOZ032>034-039>042-045>050-055>058-069>072-202000-
...CENTRAL MISSOURI...

CITY           SKY/WX    TMP DP  RH WIND       PRES   REMARKS
COLUMBIA       SUNNY     90  74  59 S10       29.86F HX  99
JEFFERSON CITY   N/A     89  71  55 MISG      29.85F HX  95
ROLLA          SUNNY     92  70  48 S9        29.92F HX  97
SEDALIA        SUNNY     91  76  61 S14       29.85F HX 103
WHITEMAN AFB   MOSUNNY   89  76  65 S20       29.81F HX 101
WARRENSBURG    MOSUNNY   88  72  58 S13G18    29.82F HX  94
OSAGE BEACH    SUNNY     91  72  53 S12       29.88F HX  98

$$
MOZ051-052-059>065-202000-
...EAST CENTRAL MISSOURI...

CITY           SKY/WX    TMP DP  RH WIND       PRES   REMARKS
ST LOUIS INTL  PTSUNNY   94  72  48 S8        29.90F HX 102
SPIRIT OF STL  MOSUNNY   93  74  53 CALM      29.87F HX 103
ST CHARLES     MOSUNNY   91  71  51 S13       29.87F HX  97

$$
MOZ072>076-082>087-097>100-106>115-202000-
...SOUTH CENTRAL AND SOUTHEAST MISSOURI...

CITY           SKY/WX    TMP DP  RH WIND       PRES   REMARKS
CAPE GIRARDEAU MOSUNNY   91  71  51 S13       29.93F HX  97
FARMINGTON     MOSUNNY   90  71  53 SW13G21   29.94F HX  96
POPLAR BLUFF   PTSUNNY   92  71  50 SW14      29.93F HX  98
WEST PLAINS    MOSUNNY   88  69  53 S10       29.95F HX  92

$$



USA.gov is the U.S. government's official web portal to all federal, state and local government web resources and services.